Weather History for Fort Wayne, IN

Change the Weather History Date:

Saturday, January 19, 2013

  Actual Average Record
Temperature  
Mean Temperature 42 °F 25 °F  
Max Temperature 49 °F 32 °F 63 °F (1907)
Min Temperature 35 °F 17 °F -18 °F (1994)
Degree Days  
Heating Degree Days 23 40  
Month to date heating degree days 676 759  
Since 1 July heating degree days 2878 3087  
Cooling Degree Days 0 0  
Month to date cooling degree days 0 0  
Year to date cooling degree days 0 0  
Moisture  
Dew Point 30 °F    
Average Humidity 63    
Maximum Humidity 73    
Minimum Humidity 53    
Precipitation  
Precipitation 0.00 in 0.07 in 1.90 in (1907)
Month to date precipitation 2.46 1.45  
Year to date precipitation 2.46 1.45  
Snow  
Snow 0.00 in 0.40 in 8.20 in (1987)
Month to date snowfall 0.2 6.1  
Since 1 July snowfall 9.8 16.7  
Snow Depth 0.00 in    
Sea Level Pressure  
Sea Level Pressure 29.94 in    
Wind  
Wind Speed 21 mph (SW)    
Max Wind Speed 33 mph    
Max Gust Speed 39 mph    
Visibility 10 miles    
Events      
T = Trace of Precipitation, MM = Missing Value Source: NWS Daily Summary

Daily Weather History Graph

Daily Weather History Graph

Search for Another Location

Airport:

Trip Planner

Search our weather history database for the weather conditions in past years. The results will help you decide how hot, cold, wet, or windy it might be!

Date:

Astronomy

Jan. 19, 2013 Rise Set
Actual Time 8:01 AM EST 5:42 PM EST
Civil Twilight 7:31 AM EST 6:12 PM EST
Nautical Twilight 6:57 AM EST 6:45 PM EST
Astronomical Twilight 6:24 AM EST 7:18 PM EST
Moon 12:08 PM EST 1:34 AM EST
Length of Visible Light 10h 41m
Length of Day
9h 41m
First Quarter, 57% of the Moon is Illuminated
Jan 19
First Quarter
Jan 26
Full
Feb 3
Last Quarter
Feb 10
New
Feb 17
First Quarter

Hourly Weather History & Observations

Time (EST) Temp. Windchill Dew Point Humidity Pressure Visibility Wind Dir Wind Speed Gust Speed Precip Events Conditions
12:54 AM 36.0 °F 24.7 °F 25.0 °F 64% 30.07 in 10.0 mi SW 21.9 mph - N/A   Partly Cloudy
1:54 AM 36.0 °F 25.0 °F 25.0 °F 64% 30.06 in 10.0 mi SW 20.7 mph - N/A   Partly Cloudy
2:54 AM 36.0 °F 25.6 °F 25.0 °F 64% 30.07 in 10.0 mi SW 18.4 mph - N/A   Clear
3:54 AM 37.0 °F 26.4 °F 25.0 °F 62% 30.06 in 10.0 mi SW 20.7 mph 28.8 mph N/A   Clear
4:54 AM 37.0 °F 26.2 °F 25.0 °F 62% 30.04 in 10.0 mi SW 21.9 mph 29.9 mph N/A   Partly Cloudy
5:54 AM 37.0 °F 26.7 °F 26.1 °F 65% 30.04 in 10.0 mi SW 19.6 mph - N/A   Partly Cloudy
6:54 AM 37.4 °F 27.5 °F 26.6 °F 65% 30.02 in 10.0 mi SW 18.4 mph - N/A   Partly Cloudy
7:54 AM 36.0 °F 26.0 °F 27.0 °F 70% 30.04 in 10.0 mi SW 17.3 mph - N/A   Partly Cloudy
8:54 AM 37.0 °F 27.0 °F 27.0 °F 67% 30.03 in 10.0 mi SW 18.4 mph 25.3 mph N/A   Partly Cloudy
9:54 AM 39.9 °F 29.2 °F 27.0 °F 60% 30.03 in 10.0 mi SW 25.3 mph 31.1 mph N/A   Partly Cloudy
10:54 AM 43.0 °F 33.8 °F 28.9 °F 58% 30.02 in 10.0 mi SW 23.0 mph 31.1 mph N/A   Partly Cloudy
11:54 AM 45.0 °F 35.8 °F 30.0 °F 56% 29.98 in 10.0 mi SW 26.5 mph 33.4 mph N/A   Scattered Clouds
12:54 PM 46.9 °F - 30.9 °F 54% 29.94 in 10.0 mi SW 29.9 mph 35.7 mph N/A   Scattered Clouds
1:54 PM 48.0 °F - 32.0 °F 54% 29.89 in 10.0 mi SW 23.0 mph 34.5 mph N/A   Scattered Clouds
2:54 PM 48.0 °F - 33.1 °F 56% 29.87 in 10.0 mi SW 26.5 mph 35.7 mph N/A   Scattered Clouds
3:54 PM 48.0 °F - 33.1 °F 56% 29.85 in 10.0 mi SW 20.7 mph 31.1 mph N/A   Scattered Clouds
4:54 PM 46.0 °F 38.8 °F 34.0 °F 63% 29.84 in 10.0 mi SW 18.4 mph 28.8 mph N/A   Mostly Cloudy
5:54 PM 44.1 °F 37.1 °F 34.0 °F 68% 29.83 in 10.0 mi SW 15.0 mph - N/A   Mostly Cloudy
6:54 PM 41.0 °F 33.5 °F 33.1 °F 73% 29.83 in 10.0 mi SW 13.8 mph - N/A   Partly Cloudy
7:54 PM 41.0 °F 32.8 °F 33.1 °F 73% 29.83 in 10.0 mi SW 16.1 mph - N/A   Clear
8:54 PM 42.1 °F 33.3 °F 34.0 °F 73% 29.81 in 10.0 mi SW 19.6 mph - N/A   Clear
9:54 PM 42.1 °F 33.1 °F 34.0 °F 73% 29.80 in 10.0 mi SW 20.7 mph - N/A   Clear
10:54 PM 41.0 °F 31.6 °F 34.0 °F 76% 29.80 in 10.0 mi WSW 20.7 mph - N/A   Clear
11:54 PM 42.1 °F 33.3 °F 34.0 °F 73% 29.79 in 10.0 mi WSW 19.6 mph 29.9 mph N/A   Partly Cloudy